Location: Orange Harbor Mobile Home Park
(26.6923°N, 81.7937°W)
Time: 07:51:25
(UTC+00:00)

Cosmos 2208 Rocket - Pass Details

Date: 19 September 2020
Orbit: 754 x 805 km, 74.0° (Epoch: 29 October)

Event Time Altitude Azimuth Distance (km) Brightness Sun altitude
Rises 09:52:35 0° 186° (S) 3,255 7.1 -19.0°
Reaches altitude 10° 09:55:00 10° 183° (S) 2,322 6.3 -18.5°
Maximum altitude 10:00:12 62° 103° (ESE) 862 4.5 -17.4°
Drops below altitude 10° 10:05:21 10° 23° (NNE) 2,300 6.9 -16.2°
Sets 10:07:43 0° 20° (NNE) 3,222 7.7 -15.7°
